TimeEST,TemperatureF,Dew PointF,Humidity,Sea Level PressureIn,VisibilityMPH,Wind Direction,Wind SpeedMPH,Gust SpeedMPH,PrecipitationIn,Events,Conditions,WindDirDegrees,DateUTC
12:53 AM,73.0,60.1,64,30.08,10.0,SE,10.4,-,N/A,,Clear,130,2014-03-03 05:53:00
1:53 AM,73.0,57.9,59,30.06,10.0,SE,9.2,-,N/A,,Partly Cloudy,130,2014-03-03 06:53:00
2:53 AM,72.0,57.9,61,30.04,10.0,SE,9.2,-,N/A,,Clear,140,2014-03-03 07:53:00
3:53 AM,72.0,60.1,66,30.04,10.0,SSE,6.9,-,N/A,,Partly Cloudy,150,2014-03-03 08:53:00
4:53 AM,71.1,59.0,66,30.03,10.0,SSE,4.6,-,N/A,,Clear,150,2014-03-03 09:53:00
5:53 AM,64.9,57.9,78,30.05,10.0,West,5.8,-,N/A,,Clear,280,2014-03-03 10:53:00
6:53 AM,64.9,61.0,87,30.06,10.0,Calm,Calm,-,N/A,,Scattered Clouds,0,2014-03-03 11:53:00
7:53 AM,70.0,63.0,78,30.08,10.0,Calm,Calm,-,N/A,,Clear,0,2014-03-03 12:53:00
8:53 AM,75.9,60.1,58,30.09,10.0,SSE,3.5,-,N/A,,Clear,160,2014-03-03 13:53:00
9:53 AM,79.0,57.9,48,30.10,10.0,South,8.1,-,N/A,,Clear,190,2014-03-03 14:53:00
10:53 AM,79.0,59.0,50,30.10,10.0,SE,8.1,16.1,N/A,,Scattered Clouds,130,2014-03-03 15:53:00
11:53 AM,80.1,60.1,50,30.08,10.0,SE,10.4,-,N/A,,Clear,130,2014-03-03 16:53:00
12:53 PM,81.0,60.1,49,30.06,10.0,SE,10.4,-,N/A,,Clear,140,2014-03-03 17:53:00
1:53 PM,81.0,60.1,49,30.03,10.0,SE,13.8,-,N/A,,Clear,140,2014-03-03 18:53:00
2:53 PM,81.0,60.1,49,30.01,10.0,SSE,13.8,21.9,N/A,,Clear,150,2014-03-03 19:53:00
3:53 PM,80.1,61.0,52,30.00,10.0,SE,13.8,-,N/A,,Clear,140,2014-03-03 20:53:00
4:53 PM,79.0,61.0,54,30.01,10.0,SSE,12.7,-,N/A,,Clear,150,2014-03-03 21:53:00
5:53 PM,77.0,60.1,56,30.01,10.0,SSE,10.4,-,N/A,,Clear,160,2014-03-03 22:53:00
6:53 PM,75.9,62.1,62,30.02,10.0,SSE,10.4,-,N/A,,Clear,160,2014-03-03 23:53:00
7:53 PM,75.0,63.0,66,30.03,10.0,South,6.9,-,N/A,,Clear,180,2014-03-04 00:53:00
8:53 PM,73.9,63.0,68,30.05,10.0,SSW,4.6,-,N/A,,Clear,210,2014-03-04 01:53:00
9:53 PM,73.0,63.0,71,30.06,10.0,SW,3.5,-,N/A,,Clear,230,2014-03-04 02:53:00
10:53 PM,72.0,63.0,73,30.06,10.0,West,3.5,-,N/A,,Clear,270,2014-03-04 03:53:00
11:53 PM,70.0,62.1,76,30.06,10.0,West,3.5,-,N/A,,Clear,270,2014-03-04 04:53:00